Location: Campestrin
(46.4667°N, 11.7167°E)
Time: 11:02:01
(UTC+00:00)

Terra - Pass Details

Date: 18 April 2021
Orbit: 701 x 703 km, 98.2° (Epoch: 07 May)

Event Time Altitude Azimuth Distance (km) Brightness Sun altitude
Exits shadow 19:50:06 18° 81° (E) 1,694 3.4 -16.8°
Maximum altitude 19:51:18 20° 61° (ENE) 1,615 3.5 -17.0°
Drops below altitude 10° 19:54:42 10° 16° (NNE) 2,180 4.6 -17.4°
Sets 19:57:28 0° 360° (N) 3,103 5.7 -17.8°
